Simultaneous Nadir Overpasses (SNOs) Predictions

Prediction of SNOs between GOES-16 and NOAA-19 Satellite Orbit:

Table of predicted SNOs for the next 14.0 days since TLE Epoch: 6/7/2019
Index Date Time (GOES-16) GOES-16 Lat,Lon NOAA-19 Lat,Lon Distance(km) Time Diff (sec)
1 06/07/2019 22:06:22 0.00, -75.19 0.00, -77.83 292.65 0
2 06/08/2019 21:55:55 0.00, -75.20 0.07, -74.85 39.20 80
3 06/09/2019 21:44:17 0.00, -75.20 0.74, -72.01 363.65 80
4 06/12/2019 10:05:18 -0.00, -75.22 0.43, -76.98 201.63 80
5 06/13/2019 09:51:02 -0.00, -75.23 -0.27, -74.16 123.34 80
6 06/14/2019 09:39:24 -0.01, -75.24 -0.92, -71.32 448.34 80
7 06/15/2019 22:14:57 0.01, -75.25 -0.89, -79.19 449.06 80
8 06/16/2019 22:03:20 0.02, -75.27 -0.22, -76.35 123.68 80
9 06/17/2019 21:49:02 0.02, -75.28 0.45, -73.52 201.85 80
10 06/20/2019 10:12:45 -0.03, -75.33 0.70, -78.50 361.67 80
11 06/21/2019 10:01:08 -0.04, -75.35 0.05, -75.66 35.72 80




NCC Satellite Simultaneous Nadir Overpasses (SNOs) Prediction Service
